Tracking 28052 objects as of 24-Sep-2023
HD Live streaming from Space Station
objects crossing your sky now

STARLINK-30269

Track STARLINK-30269 now!
10-day predictions
STARLINK-30269 is classified as:


NORAD ID: 57528
Int'l Code: 2023-115H
Perigee: 524.2 km
Apogee: 526.1 km
Inclination: 43.0 °
Period: 95.0 minutes
Semi major axis: 6896 km
RCS: Unknown
Launch date: August 8, 2023
Source: United States (US)
Launch site: AIR FORCE WESTERN TEST RANGE (AFWTR)
Your satellite tracking list
Your tracking list is empty




NASA's NSSDC Master Catalog

Two Line Element Set (TLE):
1 57528U 23115H   23267.06777696  .00030616  00000-0  15714-2 0  9993
2 57528  43.0001 202.6092 0001343 255.0859 104.9840 15.15979810  8395
Source of the keplerian elements: AFSPC